GFSNIL_prec_snow_345.txt.gz
Snowfall_Accumulation
0.7 0.6 1.2 0.0 0.1 0.1 0.1 0.2 0.1 0.1 0.0 0.1 0.1 0.0 0.0 0.0 0.0 0.0 0.0 0.0 0.0 0.0
0.9 1.3 1.4 0.1 0.1 0.1 0.2 0.3 0.2 0.3 0.2 0.2 0.1 0.1 0.0 0.1 0.0 0.0 0.0 0.0 0.0 0.0
1.2 1.5 1.2 1.5 0.1 0.1 0.7 0.2 0.1 0.2 0.2 0.1 0.1 0.0 0.1 0.0 0.1 0.1 0.1 0.1 0.0 0.0
0.7 0.9 1.1 2.0 0.7 0.5 0.1 0.0 1.1 0.0 0.2 0.1 0.1 0.1 0.1 0.1 0.2 0.0 0.0 0.0 0.0 0.0
5.4 3.9 1.0 1.2 2.4 0.5 0.0 0.0 0.0 1.7 0.0 0.0 0.1 0.2 0.0 0.1 0.1 0.1 0.3 0.4 0.2 0.1
9.0 9.8 7.1 2.4 0.0 2.3 0.8 0.0 1.3 2.0 2.0 0.2 0.1 0.0 0.2 0.0 0.0 0.2 0.0 0.0 0.1 0.0
8.4 9.2 10.4 9.0 7.6 7.3 5.2 1.3 1.2 1.0 1.7 1.2 0.3 0.2 1.5 0.0 0.0 0.4 0.1 0.1 0.0 0.0
7.0 8.1 8.1 9.6 9.0 8.8 10.3 9.2 6.8 5.1 3.2 1.1 0.1 0.2 2.0 0.5 1.3 1.4 1.1 0.6 1.6 1.2
7.2 6.5 7.5 8.5 9.9 9.2 8.9 9.8 8.7 10.8 4.7 5.8 1.4 0.1 1.9 0.8 2.9 3.4 4.6 4.2 3.2 2.6
8.2 7.7 7.9 8.4 8.1 7.9 9.0 8.9 8.2 10.4 11.4 10.8 5.8 0.4 1.7 2.1 4.0 6.8 6.5 6.3 4.3 3.0
6.9 6.7 6.7 7.5 7.5 7.6 7.8 9.5 9.3 9.0 8.4 11.8 11.4 7.3 5.6 10.8 10.8 9.3 8.6 6.5 4.2 2.6
5.5 5.6 5.9 7.1 7.6 9.9 11.2 14.2 14.2 16.1 16.7 14.9 15.1 6.7 8.9 14.4 13.3 11.6 6.7 3.2 2.2 1.6
5.6 8.1 11.2 8.6 8.4 13.6 13.3 12.9 14.0 14.6 14.0 12.2 12.1 7.7 7.0 10.5 14.8 15.9 10.1 4.5 2.1 1.5
5.6 7.5 9.0 10.7 10.4 11.4 13.1 12.9 11.6 10.7 8.7 8.4 10.4 10.3 9.3 9.4 13.2 14.7 14.7 9.4 4.7 3.4

GFSNIL_prec_snow_348.txt.gz
Snowfall_Accumulation
2.2 2.3 2.8 1.2 1.2 0.1 0.1 0.2 0.1 0.1 0.0 0.1 0.1 0.0 0.0 0.0 0.0 0.0 0.0 0.0 0.0 0.0
2.3 2.7 2.9 1.6 1.3 0.1 0.2 0.3 0.2 0.3 0.2 0.2 0.1 0.1 0.0 0.1 0.0 0.0 0.0 0.0 0.0 0.0
2.1 2.7 2.4 2.7 1.6 1.6 2.3 0.2 0.1 0.2 0.2 0.1 0.1 0.0 0.1 0.0 0.1 0.1 0.1 0.1 0.0 0.0
0.7 1.6 2.1 2.9 1.6 2.1 1.7 1.7 1.1 0.0 0.2 0.1 0.1 0.1 0.1 0.1 0.2 0.0 0.0 0.0 0.0 0.0
5.4 3.9 1.7 2.0 3.0 1.2 1.3 1.6 2.0 1.7 0.0 0.0 0.1 0.2 0.0 0.1 0.1 0.1 0.3 0.4 0.2 0.1
9.0 9.8 7.1 2.9 0.6 2.7 1.2 1.0 3.1 4.6 2.0 0.2 0.1 0.0 0.2 0.0 0.0 0.2 0.0 0.0 0.1 0.0
8.4 9.2 10.4 9.2 8.0 7.8 5.5 1.6 2.1 2.8 1.7 1.2 0.3 0.2 1.5 0.0 0.0 0.4 0.1 0.1 0.0 0.0
7.0 8.1 8.1 9.6 9.0 9.1 10.6 9.4 7.1 5.9 4.4 1.1 0.1 0.2 2.0 0.5 1.3 1.4 1.1 0.6 1.6 1.2
7.2 6.5 7.5 8.5 9.9 9.2 9.1 10.0 8.9 11.2 5.2 6.4 1.4 0.1 1.9 0.8 2.9 3.4 4.6 4.2 3.2 2.6
8.2 7.7 7.9 8.4 8.1 7.9 9.0 9.0 8.3 10.6 12.0 11.4 6.4 0.4 1.7 2.1 4.0 6.8 6.5 6.3 4.3 3.0
6.9 6.7 6.7 7.5 7.5 7.6 7.8 9.5 9.4 9.2 8.6 12.2 12.1 7.3 5.6 10.8 10.8 9.3 8.6 6.5 4.2 2.6
5.5 5.6 5.9 7.1 7.6 9.9 11.3 14.2 14.4 16.3 16.9 15.0 15.5 7.7 8.9 14.4 13.3 11.6 6.7 3.2 2.2 1.6
5.6 8.1 11.2 8.8 8.7 13.8 13.6 13.3 14.4 15.0 14.4 12.5 12.4 8.5 7.0 11.2 16.4 18.1 10.1 4.5 2.1 1.5
5.6 7.5 9.0 10.7 10.7 11.8 13.5 13.3 12.0 11.0 9.0 8.8 10.9 11.2 10.0 10.1 14.2 15.9 16.3 11.3 4.7 3.4

GFSNIL_prec_snow_351.txt.gz
Snowfall_Accumulation
2.2 2.3 3.7 2.2 2.2 1.5 1.1 1.0 0.1 0.1 0.0 0.1 0.1 0.0 0.0 0.0 0.0 0.0 0.0 0.0 0.0 0.0
2.3 2.7 2.9 3.0 2.7 1.1 1.6 1.6 0.2 0.3 0.2 0.2 0.1 0.1 0.0 0.1 0.0 0.0 0.0 0.0 0.0 0.0
2.1 2.7 2.4 2.7 3.2 3.0 3.3 1.5 1.6 2.5 0.2 0.1 0.1 0.0 0.1 0.0 0.1 0.1 0.1 0.1 0.0 0.0
0.7 1.6 2.1 2.9 2.9 3.6 3.1 3.0 2.2 1.8 3.3 0.1 0.1 0.1 0.1 0.1 0.2 0.0 0.0 0.0 0.0 0.0
5.4 3.9 1.7 2.0 3.0 2.4 2.6 3.1 3.1 3.1 2.4 3.5 0.1 0.2 0.0 0.1 0.1 0.1 0.3 0.4 0.2 0.1
9.0 9.8 7.1 2.9 0.6 3.4 2.4 2.5 4.6 5.9 4.1 3.1 0.1 0.0 0.2 0.0 0.0 0.2 0.0 0.0 0.1 0.0
8.4 9.2 10.4 9.2 8.0 7.8 6.2 2.8 3.5 4.5 3.6 4.1 4.1 0.2 1.5 0.0 0.0 0.4 0.1 0.1 0.0 0.0
7.0 8.1 8.1 9.6 9.0 9.1 10.6 10.1 8.3 7.5 6.5 4.0 3.6 0.2 2.0 0.5 1.3 1.4 1.1 0.6 1.6 1.2
7.2 6.5 7.5 8.5 9.9 9.2 9.1 10.3 9.6 12.5 6.9 8.8 4.8 3.7 1.9 0.8 2.9 3.4 4.6 4.2 3.2 2.6
8.2 7.7 7.9 8.4 8.1 7.9 9.0 9.1 8.6 11.7 13.4 12.9 8.8 3.8 1.7 2.1 4.0 6.8 6.5 6.3 4.3 3.0
6.9 6.7 6.7 7.5 7.5 7.6 7.8 9.5 9.6 9.8 9.8 13.5 13.8 9.8 8.6 10.8 10.8 9.3 8.6 6.5 4.2 2.6
5.5 5.6 5.9 7.1 7.6 9.9 11.4 14.2 14.5 16.5 17.5 16.2 16.9 9.5 11.5 14.4 13.3 11.6 6.7 3.2 2.2 1.6
5.6 8.1 11.2 8.8 8.7 13.9 13.8 13.6 14.7 15.3 14.7 13.4 13.9 10.6 7.0 13.3 18.7 20.4 12.0 4.5 2.1 1.5
5.6 7.5 9.0 10.7 10.7 11.8 13.6 13.6 12.3 11.3 9.2 9.1 11.8 12.6 11.3 11.4 15.9 17.8 18.2 13.4 4.7 3.4

GFSNIL_prec_snow_354.txt.gz
Snowfall_Accumulation
2.2 2.3 3.7 2.2 2.2 1.6 1.1 1.0 0.1 0.6 0.6 0.1 0.1 0.0 0.0 0.0 0.0 0.0 0.0 0.0 0.0 0.0
2.3 2.7 2.9 3.0 2.7 1.1 1.6 2.2 0.2 1.0 1.1 1.1 0.1 0.1 0.0 0.1 0.0 0.0 0.0 0.0 0.0 0.0
2.1 2.7 2.4 2.7 3.2 3.0 3.3 1.5 2.6 3.5 1.0 1.3 1.1 0.0 0.1 0.0 0.1 0.1 0.1 0.1 0.0 0.0
0.7 1.6 2.1 2.9 2.9 3.6 3.1 3.0 3.4 3.0 4.3 1.2 1.5 0.1 0.1 0.1 0.2 0.0 0.0 0.0 0.0 0.0
5.4 3.9 1.7 2.0 3.0 2.4 2.6 3.1 4.1 4.5 3.6 4.9 1.8 1.8 1.4 0.1 0.1 0.1 0.3 0.4 0.2 0.1
9.0 9.8 7.1 2.9 0.6 3.4 2.4 2.5 4.6 7.0 5.4 4.3 2.2 2.1 1.8 0.0 0.0 0.2 0.0 0.0 0.1 0.0
8.4 9.2 10.4 9.2 8.0 7.8 6.2 3.1 3.5 5.3 4.7 5.5 5.8 2.7 3.9 0.0 0.0 0.4 0.1 0.1 0.0 0.0
7.0 8.1 8.1 9.6 9.0 9.1 10.6 10.1 8.9 8.2 7.4 5.3 5.6 2.5 4.9 3.7 1.3 1.4 1.1 0.6 1.6 1.2
7.2 6.5 7.5 8.5 9.9 9.2 9.1 10.3 10.1 13.3 7.9 10.0 6.5 6.0 4.7 0.8 5.7 3.4 4.6 4.2 3.2 2.6
8.2 7.7 7.9 8.4 8.1 7.9 9.0 9.1 8.6 12.4 14.3 14.1 10.2 5.8 1.7 2.1 4.0 6.8 6.5 6.3 4.3 3.0
6.9 6.7 6.7 7.5 7.5 7.6 7.8 9.6 9.9 10.4 10.7 14.6 15.3 11.8 11.0 10.8 13.6 9.3 8.6 6.5 4.2 2.6
5.5 5.6 5.9 7.1 7.6 9.9 11.4 14.2 14.7 17.1 18.5 17.4 18.6 11.8 14.2 17.8 16.9 15.6 6.7 3.2 2.2 1.6
5.6 8.1 11.2 8.8 8.7 13.9 13.8 13.6 14.9 15.7 15.5 14.5 15.4 12.6 9.6 16.2 22.2 24.2 16.3 4.5 2.1 1.5
5.6 7.5 9.0 10.7 10.7 11.8 13.6 13.6 12.3 11.5 9.7 9.9 12.8 14.0 13.2 13.3 18.0 20.5 21.3 17.1 7.8 3.4